Regional Weather Roundup
Issued by NWS

Home | Current Version | Previous Version | Text Only | Print | Product List | Glossary Off
Versions: 1 2 3 4 5 6 7 8 9 10 11 12 13 14 15 16 17 18 19 20 21 22 23 24 25 26 27 28 29 30 31 32 33 34 35 36 37 38 39 40 41 42 43 44 45 46 47 48 49 50

000
ASUS43 KIND 291159
RWRIN

WEATHER ROUNDUP FOR INDIANA
NATIONAL WEATHER SERVICE INDIANAPOLIS IN
800 AM EDT WED JUL 29 2015

NOTE: "FAIR" INDICATES FEW OR NO CLOUDS BELOW 12,000 FEET WITH NO
SIGNIFICANT WEATHER AND/OR OBSTRUCTIONS TO VISIBILITY.

* - STATION DOES NOT REPORT WEATHER SUCH AS PRECIPITATION OR FOG.

+ - STATION NOT QUALITY CONTROLLED BY THE NATIONAL WEATHER SERVICE.
    USE DATA WITH CAUTION...ESPECIALLY DEWPOINT AND RELATIVE
    HUMIDITY OBSERVATIONS.

INZ001>003-010>013-019-020-291300-
NORTHWEST INDIANA

CITY           SKY/WX    TMP DP  RH WIND       PRES   REMARKS
GARY /AIRPORT/ CLOUDY    75  75 100 VRB5      29.95R
RENSSELAER +   CLOUDY    73  73 100 SW3       29.96S

$$

LMZ046-743>745-291300-
SOUTHERN LAKE MICHIGAN

STATION/POSITION TIME  TEMP    WIND        PRES    WAVE
                       AIR SEA DIR/SP/G            HT
                 (UTC) (F)     (DEG/KT/KT) (MB)    (FT)
BURNS HARBOR     1100   75     260/  5/  7 1014.2R
MICHIGAN CITY    1100   75     230/  7/  8   N/A
5NW MICH CITY    1100   76 74  270/  6/  8   N/A     1

$$

INZ004-005-014>016-021>024-291300-
NORTH CENTRAL INDIANA

CITY           SKY/WX    TMP DP  RH WIND       PRES   REMARKS
ELKHART        CLOUDY    75  72  88 CALM      29.96S
GOSHEN         PTSUNNY   77  72  84 SW6       29.96S
6HR MIN TEMP:  72; 6HR MAX TEMP:  77;

SOUTH BEND     CLOUDY    78  73  84 W3        29.96R
6HR MIN TEMP:  75; 6HR MAX TEMP:  80;


$$

INZ006>009-017-018-025>027-291300-
NORTHEAST INDIANA

CITY           SKY/WX    TMP DP  RH WIND       PRES   REMARKS
ANGOLA *+      SUNNY     73  66  78 CALM      29.97S
FORT WAYNE     PTSUNNY   75  72  90 CALM      29.97S FOG
6HR MIN TEMP:  72; 6HR MAX TEMP:  76;


$$

INZ028-029-035-036-043>045-051>053-291300-
WEST CENTRAL INDIANA

CITY           SKY/WX    TMP DP  RH WIND       PRES   REMARKS
CRAWFORDSVL +  CLOUDY    73  73 100 W3          N/A
6HR MIN TEMP:  71; 6HR MAX TEMP:  73; 6HR PCP:  0.01;

GREENCASTLE +  LGT RAIN  75  70  83 CALM      29.99F
LAFAYETTE      CLOUDY    73  72  96 CALM      29.96R
6HR MIN TEMP:  73; 6HR MAX TEMP:  75;

TERRE HAUTE    CLOUDY    74  73  97 S3        29.98F
6HR MIN TEMP:  74; 6HR MAX TEMP:  77; 6HR PCP:  0.08;


$$

INZ030>032-037>040-046>048-054>057-064-065-291300-
CENTRAL INDIANA

CITY           SKY/WX    TMP DP  RH WIND       PRES   REMARKS
GREENWOOD *+   PTSUNNY   75  73  94 CALM      29.99S
INDIANAPOLIS   PTSUNNY   77  74  90 S7        29.96F FOG
6HR MIN TEMP:  75; 6HR MAX TEMP:  79;

-EAGLE CREEK   MOSUNNY   77  74  90 CALM      29.96F
6HR MIN TEMP:  75; 6HR MAX TEMP:  77;

KOKOMO *+      PTSUNNY   75  72  88 CALM      29.97S
6HR MIN TEMP:  72; 6HR MAX TEMP:  75;

MT COMFORT *+  MOSUNNY   73 N/A N/A CALM      29.99S
SHELBYVILLE    MOSUNNY   75  73  93 S5        29.97F FOG
6HR MIN TEMP:  73; 6HR MAX TEMP:  75;


$$

INZ033-034-041-042-049-050-058-059-291300-
EAST CENTRAL INDIANA

CITY           SKY/WX    TMP DP  RH WIND       PRES   REMARKS
MUNCIE         PTSUNNY   77  72  84 S6        29.98S
6HR MIN TEMP:  71; 6HR MAX TEMP:  77;


$$

INZ060-061-067>069-081>083-085>088-291300-
SOUTHWEST INDIANA

CITY           SKY/WX    TMP DP  RH WIND       PRES   REMARKS
EVANSVILLE     LGT RAIN  77  73  87 N6        30.02R
6HR MIN TEMP:  75; 6HR MAX TEMP:  77; 6HR PCP: TRACE;

HUNTINGBURG *+ MOSUNNY   73  72  94 SW5       30.01R
6HR MIN TEMP:  73; 6HR MAX TEMP:  75;


$$

INZ062-063-066-070>080-084-089>092-291300-
SOUTH CENTRAL AND SOUTHEAST INDIANA

CITY           SKY/WX    TMP DP  RH WIND       PRES   REMARKS
BLOOMINGTON    PTSUNNY   76  74  93 NW5       30.01R
6HR MIN TEMP:  74; 6HR MAX TEMP:  76;

MADISON *+     MOSUNNY   73  73 100 CALM      30.03R
SEYMOUR +      MOSUNNY   77  77 100 CALM      29.99R FOG

$$




USA.gov is the U.S. government's official web portal to all federal, state and local government web resources and services.